Weather History for Boscombe Down, United Kingdom

Change the Weather History Date:

Sunday, December 9, 2012

  Actual Average Record
Temperature  
Mean Temperature 42 °F -  
Max Temperature 47 °F 42 °F 53 °F (1997)
Min Temperature 37 °F 35 °F 24 °F (2010)
Degree Days  
Heating Degree Days 22    
Moisture  
Dew Point 39 °F    
Average Humidity 83    
Maximum Humidity 93    
Minimum Humidity 69    
Precipitation  
Precipitation 0.01 in - - ()
Sea Level Pressure  
Sea Level Pressure 30.12 in    
Wind  
Wind Speed 13 mph ()    
Max Wind Speed 23 mph    
Max Gust Speed -    
Visibility 7.4 miles    
Events Rain    
Averages and records for this station are not official NWS values.
T = Trace of Precipitation, MM = Missing Value Source: Averaged Metar Reports

Daily Weather History Graph

Daily Weather History Graph

Search for Another Location

Airport:

Trip Planner

Search our weather history database for the weather conditions in past years. The results will help you decide how hot, cold, wet, or windy it might be!

Date:

Astronomy

Dec. 09, 2012 Rise Set
Actual Time 7:59 AM GMT 3:59 PM GMT
Civil Twilight 7:19 AM GMT 4:39 PM GMT
Nautical Twilight 6:37 AM GMT 5:21 PM GMT
Astronomical Twilight 5:56 AM GMT 6:02 PM GMT
Moon 2:51 AM GMT (12/9) 1:17 PM GMT (12/9)
Length of Visible Light 9h 19m
Length of Day
8h 00m
Waning Crescent, 20% of the Moon is Illuminated
Dec 9
Waning Crescent
Dec 13
New
Dec 20
First Quarter
Dec 28
Full
Jan 5
Last Quarter

Hourly Weather History & Observations

Time (GMT) Temp. Windchill Dew Point Humidity Pressure Visibility Wind Dir Wind Speed Gust Speed Precip Events Conditions
12:50 AM 39.2 °F 33.0 °F 37.4 °F 93% 30.24 in 6.2 mi West 9.2 mph - N/A   Mostly Cloudy
1:50 AM 41.0 °F 36.4 °F 39.2 °F 93% 30.24 in 6.2 mi West 6.9 mph - N/A   Overcast
2:50 AM 42 °F - 40 °F 91% 30.25 in 13 mi West 15.0 mph - -   Overcast
2:50 AM 42.8 °F 35.4 °F 41.0 °F 93% 30.21 in 6.2 mi West 15.0 mph - N/A   Overcast
3:50 AM 42.8 °F 35.4 °F 41.0 °F 93% 30.21 in 6.2 mi West 15.0 mph - N/A   Overcast
4:50 AM 44.6 °F 37.4 °F 41.0 °F 87% 30.18 in 6.2 mi WNW 16.1 mph - N/A   Overcast
5:50 AM 44 °F - 41 °F 84% 30.20 in 22 mi WNW 13.8 mph - -   Overcast
5:50 AM 44.6 °F 38.1 °F 41.0 °F 87% 30.18 in 6.2 mi WNW 13.8 mph - N/A   Overcast
6:50 AM 44.6 °F 35.9 °F 41.0 °F 87% 30.15 in 6.2 mi WNW 23.0 mph - N/A   Light Drizzle
7:50 AM 42.8 °F 34.5 °F 41.0 °F 93% 30.15 in 6.2 mi WNW 18.4 mph - N/A   Light Drizzle
8:50 AM 44 °F - 40 °F 79% 30.17 in 19 mi West 20.7 mph - - Rain Light Drizzle
8:50 AM 44.6 °F 36.4 °F 39.2 °F 81% 30.15 in 6.2 mi West 20.7 mph - N/A   Overcast
9:50 AM 44.6 °F 36.9 °F 39.2 °F 81% 30.15 in 6.2 mi WNW 18.4 mph - N/A   Mostly Cloudy
10:50 AM 44.6 °F 36.4 °F 39.2 °F 81% 30.12 in 6.2 mi WNW 20.7 mph - N/A   Mostly Cloudy
11:50 AM 46 °F - 39 °F 69% 30.14 in 25 mi WNW 19.6 mph - -   Partly Cloudy
11:50 AM 46.4 °F 39.0 °F 39.2 °F 76% 30.12 in 6.2 mi WNW 19.6 mph - N/A   Mostly Cloudy
12:50 PM 46.4 °F 38.5 °F 39.2 °F 76% 30.09 in 6.2 mi WNW 21.9 mph - N/A   Mostly Cloudy
1:50 PM 46.4 °F 39.5 °F 39.2 °F 76% 30.06 in 6.2 mi West 17.3 mph - N/A   Scattered Clouds
2:50 PM 46 °F - 40 °F 72% 30.08 in 25 mi WNW 15.0 mph - -   Mostly Cloudy
2:50 PM 46.4 °F 40.1 °F 39.2 °F 76% 30.06 in 6.2 mi WNW 15.0 mph - N/A   Mostly Cloudy
3:50 PM 44.6 °F 38.1 °F 41.0 °F 87% 30.06 in 6.2 mi WNW 13.8 mph - N/A   Scattered Clouds
4:50 PM 44.6 °F 38.8 °F 41.0 °F 87% 30.06 in 6.2 mi WNW 11.5 mph - N/A Rain Light Rain Showers
5:50 PM 43 °F - 40 °F 87% 30.09 in 28 mi WNW 11.5 mph - - Rain Rain
5:50 PM 42.8 °F 36.6 °F 41.0 °F 93% 30.06 in 6.2 mi WNW 11.5 mph - N/A   Unknown
6:50 PM 42.8 °F 36.2 °F 39.2 °F 87% 30.06 in 6.2 mi NW 12.7 mph - N/A   Unknown
7:50 PM 41.0 °F 35.2 °F 39.2 °F 93% 30.06 in 6.2 mi NW 9.2 mph - N/A   Scattered Clouds
8:50 PM 41 °F - 36 °F 77% 30.09 in 31 mi WNW 12.7 mph - -   Scattered Clouds
8:50 PM 41.0 °F 33.9 °F 35.6 °F 81% 30.06 in 6.2 mi WNW 12.7 mph - N/A   Partly Cloudy
9:50 PM 41.0 °F 34.7 °F 32.0 °F 70% 30.06 in 6.2 mi NW 10.4 mph - N/A   Unknown
10:50 PM 39.2 °F 32.5 °F 32.0 °F 75% 30.06 in 6.2 mi WNW 10.4 mph - N/A   Partly Cloudy
11:50 PM 38 °F - 33 °F 74% 30.11 in 19 mi NW 9.2 mph - -   Scattered Clouds
11:50 PM 37.4 °F 30.8 °F 32.0 °F 81% 30.06 in 6.2 mi NW 9.2 mph - N/A   Partly Cloudy